WetterOnline ( https://www.wetteronline.de )

Wetter aktuell Hilpoltstein

Aktuelles Wetter: Roth (386m)

6-stündlich | Neueste Meldungen
Ortszeit Temperatur Wetter
Mo, 24.01. 13:00 3.2° C bedeckt
Mo, 24.01. 7:00 1.7° C bedeckt
Mo, 24.01. 1:00 1.7° C bedeckt
So, 23.01. 19:00 2.9° C bedeckt
So, 23.01. 13:00 4.2° C bedeckt
So, 23.01. 7:00 1.9° C Regen
So, 23.01. 1:00 2.4° C Sprühregen
Sa, 22.01. 19:00 2.9° C Sprühregen
Ortszeit Temperatur Wetter
Mo, 24.01. 18:00 2.9° C bedeckt
Mo, 24.01. 17:30 2.9° C bedeckt
Mo, 24.01. 17:00 3.3° C bedeckt
Mo, 24.01. 16:30 3.4° C bedeckt
Mo, 24.01. 16:00 3.4° C bedeckt
Mo, 24.01. 15:30 3.4° C bedeckt
Mo, 24.01. 15:00 3.3° C bedeckt
Ortszeit Relative Feuchte Sichtweite
Mo, 24.01. 13:00 77% 50 km
Mo, 24.01. 7:00 92% 28 km
Mo, 24.01. 1:00 96% 13 km
So, 23.01. 19:00 89% 30 km
So, 23.01. 13:00 83% 30 km
So, 23.01. 7:00 98% 3.7 km
So, 23.01. 1:00 94% 9 km
Sa, 22.01. 19:00 94% 11 km
Ortszeit Relative Feuchte Sichtweite
Mo, 24.01. 18:00 84% 45 km
Mo, 24.01. 17:30 84% 50 km
Mo, 24.01. 17:00 81% 50 km
Mo, 24.01. 16:30 80% 45 km
Mo, 24.01. 16:00 79% 55 km
Mo, 24.01. 15:30 77% 45 km
Mo, 24.01. 15:00 77% 50 km
Ortszeit Niederschlagsmenge Niederschlagsart
Mo, 24.01. 13:00 0.0 l/m2 in 6 Std. -
Mo, 24.01. 7:00 0.1 l/m2 in 12 Std. -
Mo, 24.01. 1:00 0.0 l/m2 in 6 Std. -
So, 23.01. 19:00 0.1 l/m2 in 12 Std. -
So, 23.01. 13:00 0.1 l/m2 in 6 Std. Regen
So, 23.01. 7:00 0.6 l/m2 in 12 Std. Regen
So, 23.01. 1:00 0.1 l/m2 in 6 Std. Regen
Sa, 22.01. 19:00 0.6 l/m2 in 12 Std. Regen
Ortszeit Niederschlagsmenge Niederschlagsart
Mo, 24.01. 18:00 0.0 l/m2 in 1 Std. -
Mo, 24.01. 17:30 0.0 l/m2 in 1 Std. -
Mo, 24.01. 17:00 0.0 l/m2 in 1 Std. -
Mo, 24.01. 16:30 0.0 l/m2 in 1 Std. -
Mo, 24.01. 16:00 0.0 l/m2 in 1 Std. -
Mo, 24.01. 15:30 0.0 l/m2 in 1 Std. -
Mo, 24.01. 15:00 0.0 l/m2 in 1 Std. -
Ortszeit Stärke Spitze Richtung
km/h Bft. km/h Grad Sektor
Mo, 24.01. 13:00 11 2 18 100° O
Mo, 24.01. 7:00 4 1 11 70° O
Mo, 24.01. 1:00 4 1 7 100° O
So, 23.01. 19:00 4 1 14 340° N
So, 23.01. 13:00 7 2 14 300° NW
So, 23.01. 7:00 9 2 19 250° W
So, 23.01. 1:00 13 3 26 280° W
Sa, 22.01. 19:00 15 3 31 280° W
Ortszeit Stärke Spitze Richtung
km/h Bft. km/h Grad Sektor
Mo, 24.01. 18:00 4 1 7 60° NO
Mo, 24.01. 17:30 4 1 7 70° O
Mo, 24.01. 17:00 2 1 6 20° N
Mo, 24.01. 16:30 2 1 6 70° O
Mo, 24.01. 16:00 4 1 11 60° NO
Mo, 24.01. 15:30 4 1 11 180° S
Mo, 24.01. 15:00 4 1 14 50° NO
Ortszeit Untergrenze Bedeckung Gattung
total tief tief mittel hoch
Mo, 24.01. 13:00 480 m 8/8 8/8 - - -
Mo, 24.01. 7:00 450 m 8/8 8/8 - - -
Mo, 24.01. 1:00 600 m 8/8 8/8 - - -
So, 23.01. 19:00 540 m 8/8 8/8 - - -
So, 23.01. 13:00 300 m 8/8 8/8 - - -
So, 23.01. 7:00 210 m 7/8 7/8 - - -
So, 23.01. 1:00 210 m 7/8 7/8 - - -
Sa, 22.01. 19:00 180 m 8/8 8/8 - - -
Ortszeit Bedeckungsgrad in Achtel und Wolkenuntergrenze
Mo, 24.01. 18:00 8(510m)
Mo, 24.01. 17:30 8(480m)
Mo, 24.01. 17:00 8(480m)
Mo, 24.01. 16:30 8(480m)
Mo, 24.01. 16:00 8(480m)
Mo, 24.01. 15:30 8(480m)
Mo, 24.01. 15:00 8(480m)
Ortszeit Luftdruck NN (hPa) Tendenz (hPa in 3 Std.)
Mo, 24.01. 13:00 1035 - 0,4
Mo, 24.01. 7:00 1035 - 0,3
Mo, 24.01. 1:00 1036 - 0,1
So, 23.01. 19:00 1036 + 0,2
So, 23.01. 13:00 1036 - 0,3
So, 23.01. 7:00 1035 + 0,5
So, 23.01. 1:00 1034 + 0,2
Sa, 22.01. 19:00 1034 + 1,4
Ortszeit Luftdruck NN (hPa) Tendenz (hPa in 3 Std.)
Mo, 24.01. 18:00 1035 + 0,1
Mo, 24.01. 17:30 1035 - 0,1
Mo, 24.01. 17:00 1035 - 0,2
Mo, 24.01. 16:30 1035 - 0,3
Mo, 24.01. 16:00 1035 - 0,6
Mo, 24.01. 15:30 1035 - 0,8
Mo, 24.01. 15:00 1035 - 0,9
Ortszeit Schneehöhe (cm)
Mo, 24.01. 13:00 0
Mo, 24.01. 7:00 0
Mo, 24.01. 1:00 0
So, 23.01. 19:00 0
So, 23.01. 13:00 0
So, 23.01. 7:00 0
So, 23.01. 1:00 0
Sa, 22.01. 19:00 0
Ortszeit Schneehöhe (cm)
Mo, 24.01. 18:00 0
Mo, 24.01. 17:30 0
Mo, 24.01. 17:00 0
Mo, 24.01. 16:30 0
Mo, 24.01. 16:00 0
Mo, 24.01. 15:30 0
Mo, 24.01. 15:00 0
Link zu dieser Seite / Seite empfehlen

Das Wetter in ...